�������l�o���
Date,Time,MP-1(��Sv/h),MP-2(��Sv/h),MP-3(��Sv/h),MP-4(��Sv/h),MP-5(��Sv/h),MP-6(��Sv/h),MP-7(��Sv/h),MP-8(��Sv/h),����,����(m/s),���J
2019/09/24,00:00,0.730,1.018,0.705,1.261,0.919,0.420,0.725,0.687,���k��,10.5,��
2019/09/24,00:10,0.729,1.018,0.707,1.259,0.919,0.419,0.726,0.686,���k��,11.3,��
2019/09/24,00:20,0.729,1.021,0.708,1.263,0.917,0.421,0.724,0.688,��,10.5,��
2019/09/24,00:30,0.728,1.018,0.706,1.260,0.919,0.420,0.727,0.689,���k��,12.0,��
2019/09/24,00:40,0.729,1.019,0.708,1.261,0.918,0.420,0.725,0.687,���k��,15.2,��
2019/09/24,00:50,0.729,1.020,0.709,1.263,0.919,0.420,0.727,0.688,���k��,15.0,��
2019/09/24,01:00,0.729,1.021,0.708,1.263,0.917,0.422,0.725,0.690,���k��,14.1,��
2019/09/24,01:10,0.729,1.019,0.708,1.264,0.919,0.420,0.725,0.689,���k��,13.8,��
2019/09/24,01:20,0.730,1.018,0.708,1.263,0.919,0.421,0.726,0.690,��,14.7,��
2019/09/24,01:30,0.729,1.018,0.708,1.264,0.919,0.419,0.728,0.689,��,11.7,��
2019/09/24,01:40,0.730,1.020,0.708,1.264,0.919,0.421,0.726,0.687,��,13.0,��
2019/09/24,01:50,0.730,1.021,0.708,1.262,0.920,0.421,0.727,0.688,��,11.3,��
2019/09/24,02:00,0.728,1.020,0.708,1.264,0.919,0.420,0.725,0.689,��,14.2,��
2019/09/24,02:10,0.728,1.022,0.708,1.262,0.918,0.419,0.725,0.689,��,15.3,��
2019/09/24,02:20,0.730,1.022,0.709,1.262,0.919,0.419,0.726,0.686,��,12.5,��
2019/09/24,02:30,0.731,1.022,0.709,1.263,0.919,0.420,0.725,0.686,��,14.6,��
2019/09/24,02:40,0.731,1.022,0.708,1.262,0.921,0.420,0.726,0.687,��,14.4,��
2019/09/24,02:50,0.728,1.019,0.708,1.264,0.920,0.419,0.727,0.686,��,11.9,��
2019/09/24,03:00,0.729,1.022,0.710,1.266,0.920,0.420,0.728,0.687,��,14.7,��
2019/09/24,03:10,0.729,1.021,0.708,1.262,0.919,0.419,0.726,0.688,���k��,13.3,��
2019/09/24,03:20,0.730,1.023,0.711,1.266,0.919,0.420,0.726,0.686,��,13.8,��
2019/09/24,03:30,0.730,1.025,0.710,1.266,0.921,0.421,0.728,0.687,���k��,11.9,��
2019/09/24,03:40,0.729,1.023,0.710,1.266,0.920,0.419,0.729,0.687,���k��,14.7,��
2019/09/24,03:50,0.730,1.023,0.708,1.265,0.920,0.418,0.727,0.686,��,11.4,��
2019/09/24,04:00,0.730,1.020,0.710,1.268,0.921,0.419,0.725,0.687,���k��,11.6,��
2019/09/24,04:10,0.729,1.024,0.710,1.268,0.920,0.419,0.725,0.687,���k��,10.6,��
2019/09/24,04:20,0.730,1.025,0.709,1.268,0.920,0.419,0.726,0.688,���k��,9.1,��
2019/09/24,04:30,0.731,1.022,0.712,1.267,0.921,0.419,0.726,0.685,���k��,7.7,��
2019/09/24,04:40,0.729,1.023,0.709,1.268,0.922,0.422,0.726,0.687,���k��,9.0,��
2019/09/24,04:50,0.730,1.022,0.709,1.269,0.918,0.419,0.724,0.688,�k��,7.8,��
2019/09/24,05:00,0.729,1.026,0.711,1.269,0.920,0.418,0.726,0.689,�k��,7.0,��
2019/09/24,05:10,0.728,1.024,0.712,1.268,0.919,0.419,0.726,0.687,�k�k��,7.1,��
2019/09/24,05:20,0.729,1.026,0.709,1.269,0.919,0.420,0.727,0.688,�k�k��,8.6,��
2019/09/24,05:30,0.728,1.025,0.711,1.269,0.920,0.419,0.727,0.687,�k�k��,7.8,��
2019/09/24,05:40,0.730,1.025,0.712,1.271,0.922,0.419,0.726,0.688,�k�k��,7.1,��
2019/09/24,05:50,0.730,1.024,0.711,1.271,0.921,0.417,0.726,0.689,�k�k��,5.9,��
2019/09/24,06:00,0.729,1.024,0.710,1.271,0.922,0.419,0.728,0.687,�k�k��,5.3,��
2019/09/24,06:10,0.730,1.025,0.712,1.269,0.920,0.416,0.728,0.690,�k,4.4,��
2019/09/24,06:20,0.732,1.023,0.710,1.268,0.923,0.418,0.728,0.690,�k�k��,3.9,��
2019/09/24,06:30,0.730,1.025,0.712,1.268,0.924,0.417,0.726,0.690,�k��,3.6,��
2019/09/24,06:40,0.730,1.024,0.711,1.270,0.921,0.418,0.726,0.689,�k��,3.5,��
2019/09/24,06:50,0.731,1.022,0.709,1.269,0.922,0.417,0.727,0.690,�k�k��,3.9,��
2019/09/24,07:00,0.728,1.024,0.708,1.270,0.923,0.417,0.725,0.687,�k�k��,2.9,��
2019/09/24,07:10,0.732,1.023,0.712,1.269,0.922,0.419,0.726,0.689,�k,2.5,��
2019/09/24,07:20,0.732,1.023,0.709,1.269,0.921,0.416,0.727,0.688,�k�k��,2.5,��
2019/09/24,07:30,0.732,1.026,0.709,1.269,0.922,0.417,0.728,0.687,�k�k��,1.7,��
2019/09/24,07:40,0.732,1.023,0.709,1.269,0.922,0.416,0.727,0.688,�k��,2.5,��
2019/09/24,07:50,0.731,1.023,0.709,1.270,0.922,0.417,0.729,0.688,�k��,1.9,��
2019/09/24,08:00,0.732,1.023,0.712,1.269,0.923,0.416,0.730,0.689,�k,1.7,��
2019/09/24,08:10,0.731,1.025,0.709,1.269,0.924,0.415,0.727,0.688,�k�k��,1.5,��
2019/09/24,08:20,0.730,1.023,0.710,1.268,0.921,0.417,0.727,0.690,�k��,1.2,��
2019/09/24,08:30,0.731,1.023,0.713,1.268,0.922,0.416,0.727,0.690,�k��,1.2,��
2019/09/24,08:40,0.731,1.023,0.710,1.271,0.921,0.416,0.725,0.689,���k��,1.1,��
2019/09/24,08:50,0.731,1.022,0.710,1.271,0.920,0.416,0.726,0.688,���쓌,0.9,��
2019/09/24,09:00,0.730,1.023,0.711,1.269,0.922,0.416,0.726,0.688,��,1.1,��
2019/09/24,09:10,0.733,1.024,0.711,1.268,0.921,0.415,0.730,0.688,��쓌,1.2,��
2019/09/24,09:20,0.731,1.021,0.710,1.270,0.920,0.416,0.727,0.687,��,0.9,��
2019/09/24,09:30,0.732,1.022,0.710,1.269,0.922,0.414,0.727,0.687,��,1.5,��
2019/09/24,09:40,0.732,1.024,0.710,1.268,0.923,0.414,0.726,0.687,���k��,1.1,��
2019/09/24,09:50,0.733,1.025,0.711,1.269,0.920,0.415,0.727,0.686,���쓌,1.2,��
2019/09/24,10:00,0.733,1.019,0.710,1.270,0.923,0.416,0.727,0.688,���쓌,1.2,��
2019/09/24,10:10,0.733,1.022,0.711,1.269,0.922,0.417,0.726,0.686,��쓌,0.9,��
2019/09/24,10:20,0.732,1.026,0.709,1.270,0.923,0.417,0.726,0.686,��쓌,1.7,��
2019/09/24,10:30,0.732,1.025,0.711,1.272,0.923,0.415,0.729,0.687,���쓌,2.3,��
2019/09/24,10:40,0.730,1.025,0.710,1.271,0.921,0.416,0.728,0.686,�쓌,3.2,��
2019/09/24,10:50,0.732,1.027,0.709,1.270,0.923,0.417,0.730,0.686,�쓌,2.9,��
2019/09/24,11:00,0.732,1.028,0.709,1.270,0.925,0.416,0.728,0.687,�쓌,2.9,��
2019/09/24,11:10,0.731,1.025,0.708,1.270,0.924,0.418,0.728,0.687,�쓌,3.1,��
2019/09/24,11:20,0.732,1.024,0.711,1.269,0.925,0.416,0.729,0.686,�쓌,2.5,��
2019/09/24,11:30,0.733,1.028,0.710,1.272,0.927,0.417,0.728,0.688,���쓌,2.8,��
2019/09/24,11:40,0.733,1.028,0.711,1.270,0.925,0.416,0.729,0.688,�쓌,4.4,��
2019/09/24,11:50,0.734,1.029,0.712,1.271,0.927,0.418,0.730,0.688,���쓌,3.2,��
2019/09/24,12:00,0.733,1.028,0.710,1.273,0.925,0.417,0.727,0.687,�쓌,2.9,��
2019/09/24,12:10,0.733,1.030,0.712,1.272,0.929,0.418,0.727,0.689,�쓌,3.4,��
2019/09/24,12:20,0.732,1.031,0.711,1.271,0.928,0.419,0.731,0.688,�쓌,3.1,��
2019/09/24,12:30,0.735,1.033,0.713,1.273,0.930,0.420,0.728,0.688,�쓌,2.6,��
2019/09/24,12:40,0.734,1.032,0.712,1.272,0.929,0.419,0.731,0.688,���쓌,2.9,��
2019/09/24,12:50,0.734,1.031,0.713,1.273,0.926,0.420,0.729,0.688,���쓌,2.5,��
2019/09/24,13:00,0.733,1.034,0.712,1.271,0.929,0.419,0.731,0.689,�쓌,3.2,��
2019/09/24,13:10,0.735,1.032,0.713,1.271,0.929,0.420,0.730,0.688,���쓌,3.6,��
2019/09/24,13:20,0.734,1.033,0.712,1.270,0.930,0.419,0.730,0.687,���쓌,2.6,��
2019/09/24,13:30,0.734,1.031,0.712,1.271,0.931,0.419,0.729,0.688,�쓌,3.1,��
2019/09/24,13:40,0.735,1.035,0.713,1.272,0.928,0.421,0.729,0.687,��쓌,4.5,��
2019/09/24,13:50,0.736,1.032,0.711,1.274,0.930,0.419,0.729,0.688,��쓌,5.0,��
2019/09/24,14:00,0.733,1.034,0.710,1.274,0.929,0.419,0.731,0.689,��쓌,4.6,��
2019/09/24,14:10,0.734,1.033,0.713,1.274,0.930,0.418,0.729,0.687,��쓌,4.8,��
2019/09/24,14:20,0.736,1.036,0.711,1.272,0.929,0.418,0.730,0.688,��쓌,3.9,��
2019/09/24,14:30,0.735,1.033,0.712,1.273,0.929,0.418,0.730,0.686,��쓌,4.4,��
2019/09/24,14:40,0.733,1.032,0.713,1.274,0.930,0.418,0.730,0.688,��쓌,4.7,��
2019/09/24,14:50,0.734,1.035,0.713,1.274,0.930,0.419,0.729,0.687,��쓌,5.0,�L
2019/09/24,15:00,0.735,1.036,0.710,1.273,0.931,0.419,0.729,0.689,��쓌,5.0,�L
2019/09/24,15:10,0.736,1.036,0.712,1.275,0.931,0.419,0.728,0.688,��,4.5,�L
2019/09/24,15:20,0.734,1.034,0.713,1.273,0.929,0.420,0.727,0.687,��쐼,4.1,�L
2019/09/24,15:30,0.733,1.033,0.712,1.275,0.930,0.423,0.728,0.687,�쐼,5.4,�L
2019/09/24,15:40,0.730,1.028,0.713,1.270,0.926,0.423,0.727,0.688,���쐼,6.1,�L
2019/09/24,15:50,0.728,1.019,0.708,1.266,0.920,0.421,0.725,0.685,���쐼,4.7,�L
2019/09/24,16:00,0.727,1.017,0.706,1.265,0.920,0.421,0.724,0.685,��,3.6,�L
2019/09/24,16:10,0.727,1.015,0.708,1.261,0.918,0.421,0.725,0.685,���쐼,3.5,�L
2019/09/24,16:20,0.726,1.015,0.705,1.261,0.917,0.420,0.722,0.685,���쐼,4.3,��
2019/09/24,16:30,0.724,1.014,0.705,1.263,0.917,0.420,0.725,0.684,�쐼,4.3,�L
2019/09/24,16:40,0.725,1.014,0.706,1.262,0.915,0.419,0.724,0.686,��쐼,4.5,�L
2019/09/24,16:50,0.724,1.013,0.706,1.260,0.917,0.420,0.724,0.683,��쐼,4.2,�L
2019/09/24,17:00,0.724,1.013,0.705,1.262,0.916,0.419,0.724,0.684,��쐼,3.8,�L
2019/09/24,17:10,0.724,1.012,0.705,1.257,0.916,0.419,0.724,0.684,�쐼,3.1,�L
2019/09/24,17:20,0.720,1.010,0.704,1.259,0.914,0.419,0.725,0.685,���쐼,2.2,�L
2019/09/24,17:30,0.720,1.011,0.705,1.259,0.917,0.419,0.722,0.683,���쐼,2.0,�L
2019/09/24,17:40,0.722,1.011,0.705,1.259,0.917,0.418,0.722,0.685,��,2.6,�L
2019/09/24,17:50,0.722,1.012,0.706,1.259,0.917,0.418,0.722,0.686,��,3.9,�L
2019/09/24,18:00,0.723,1.012,0.705,1.259,0.914,0.420,0.723,0.686,���k��,4.5,��
2019/09/24,18:10,0.723,1.010,0.704,1.257,0.916,0.418,0.722,0.686,���k��,4.0,�L
2019/09/24,18:20,0.722,1.012,0.706,1.258,0.917,0.418,0.721,0.686,�k��,1.1,�L
2019/09/24,18:30,0.722,1.013,0.706,1.257,0.915,0.419,0.722,0.685,���k��,0.6,�L
2019/09/24,18:40,0.723,1.011,0.703,1.260,0.918,0.418,0.723,0.685,���쐼,1.9,�L
2019/09/24,18:50,0.721,1.012,0.703,1.258,0.915,0.420,0.723,0.685,�쐼,3.1,�L
2019/09/24,19:00,0.722,1.009,0.703,1.256,0.912,0.419,0.725,0.684,�쐼,4.3,�L
2019/09/24,19:10,0.721,1.010,0.701,1.255,0.911,0.419,0.722,0.683,�쐼,4.1,�L
2019/09/24,19:20,0.723,1.011,0.702,1.255,0.910,0.419,0.721,0.683,���쐼,3.8,�L
2019/09/24,19:30,0.723,1.009,0.704,1.257,0.913,0.419,0.721,0.683,�쐼,4.2,�L
2019/09/24,19:40,0.722,1.007,0.703,1.257,0.913,0.419,0.722,0.683,���쐼,3.2,�L
2019/09/24,19:50,0.720,1.008,0.704,1.256,0.912,0.416,0.722,0.682,���쐼,2.9,�L
2019/09/24,20:00,0.718,1.006,0.703,1.253,0.911,0.417,0.723,0.683,��,3.2,��
2019/09/24,20:10,0.720,1.009,0.701,1.259,0.911,0.419,0.721,0.681,��,2.8,��
2019/09/24,20:20,0.719,1.010,0.703,1.255,0.912,0.417,0.721,0.682,���k��,3.1,��
2019/09/24,20:30,0.721,1.012,0.703,1.257,0.912,0.417,0.720,0.685,���k��,4.4,��
2019/09/24,20:40,0.721,1.010,0.703,1.257,0.914,0.417,0.722,0.682,�k��,6.2,��
2019/09/24,20:50,0.722,1.012,0.701,1.258,0.914,0.418,0.722,0.683,�k��,7.7,��
2019/09/24,21:00,0.723,1.011,0.702,1.255,0.912,0.417,0.722,0.684,�k��,5.6,��
2019/09/24,21:10,0.722,1.010,0.703,1.256,0.915,0.419,0.723,0.683,�k��,5.1,��
2019/09/24,21:20,0.721,1.009,0.702,1.256,0.915,0.417,0.722,0.684,�k��,3.9,��
2019/09/24,21:30,0.722,1.011,0.704,1.258,0.914,0.417,0.721,0.684,�k��,4.2,��
2019/09/24,21:40,0.721,1.013,0.702,1.257,0.914,0.417,0.722,0.687,�k��,5.2,��
2019/09/24,21:50,0.722,1.010,0.704,1.257,0.912,0.417,0.721,0.684,�k��,7.0,��
2019/09/24,22:00,0.721,1.010,0.702,1.259,0.913,0.416,0.721,0.684,�k��,4.9,��
2019/09/24,22:10,0.722,1.010,0.701,1.256,0.914,0.417,0.722,0.684,�k��,4.7,��
2019/09/24,22:20,0.723,1.010,0.702,1.258,0.914,0.417,0.721,0.685,�k��,5.0,��
2019/09/24,22:30,0.720,1.011,0.702,1.258,0.915,0.416,0.723,0.685,�k�k��,5.8,��
2019/09/24,22:40,0.719,1.014,0.702,1.258,0.912,0.417,0.722,0.685,�k��,5.3,��
2019/09/24,22:50,0.721,1.010,0.701,1.259,0.914,0.417,0.724,0.685,�k��,5.5,��
2019/09/24,23:00,0.723,1.010,0.703,1.257,0.913,0.418,0.723,0.684,�k��,5.6,��
2019/09/24,23:10,0.723,1.011,0.703,1.256,0.915,0.417,0.722,0.685,�k�k��,4.0,��
2019/09/24,23:20,0.722,1.010,0.701,1.257,0.912,0.417,0.722,0.685,�k�k��,3.6,��
2019/09/24,23:30,0.723,1.010,0.705,1.257,0.914,0.417,0.721,0.684,�k��,3.8,��
2019/09/24,23:40,0.721,1.013,0.704,1.256,0.914,0.417,0.724,0.686,�k��,4.5,��
2019/09/24,23:50,0.722,1.014,0.702,1.259,0.914,0.416,0.722,0.684,�k�k��,4.3,��
